Back to catalog

FENGYUN 1C DEB

AlivePO
NORAD 36148·DEBRIS·🇨🇳 China

Launched May 10, 1999 from Taiyuan Satellite Launch Center

Loading…

Next Passes (next 24 hours)

TLE

AgingSource: Space-Track

Epoch: Sep 9, 2026, 18:22 UTC

1 36148U 99025DRV 26252.76539132  .00001693  00000-0  10944-2 0  9999
2 36148  98.4164  81.8362 0276625 325.2702  33.0666 13.87014988939995

Track FENGYUN 1C DEB in real time with AllMySat

Download on the App Store